OM6ACB-6 Weather Reports


Display with metric or nautical units.
time (UTC)temp
F
wind
direction
speed
MPH
gust
MPH
rain 1hr
in
rain 24hr
in
rain mn
in
humidity
%
barometer
mb
20260903213502 51 0 0.0 0.0 0.00 0.00 0.00 33 1021.7
20260903212502 53 0 0.0 0.0 0.00 0.00 0.00 29 1021.9
20260903211502 53 0 0.0 0.0 0.00 0.00 0.00 30 1021.8
20260903210501 53 0 0.0 0.0 0.00 0.00 0.00 27 1021.8
20260903205501 53 0 0.0 0.0 0.00 0.00 0.00 32 1021.8
20260903204501 52 0 0.0 0.0 0.00 0.00 0.00 33 1021.7
20260903203501 53 0 0.0 0.0 0.00 0.00 0.00 31 1021.8
20260903202500 53 0 0.0 0.0 0.00 0.00 0.00 28 1021.8
20260903201500 54 0 0.0 0.0 0.00 0.00 0.00 28 1021.8
20260903200500 54 0 0.0 0.0 0.00 0.00 0.00 27 1021.7
20260903195459 54 0 0.0 0.0 0.00 0.00 0.00 26 1021.7
20260903194459 55 0 0.0 0.0 0.00 0.00 0.00 26 1021.8
20260903193459 54 0 0.0 0.0 0.00 0.00 0.00 26 1021.8
20260903192458 55 0 0.0 0.0 0.00 0.00 0.00 26 1021.9
20260903191458 56 0 0.0 0.0 0.00 0.00 0.00 26 1021.9
20260903190458 56 0 0.0 0.0 0.00 0.00 0.00 26 1022.0
20260903185458 57 0 0.0 0.0 0.00 0.00 0.00 26 1021.9
20260903184457 57 0 0.0 0.0 0.00 0.00 0.00 26 1021.9
20260903183457 57 0 0.0 0.0 0.00 0.00 0.00 26 1021.8
20260903182457 58 0 0.0 0.0 0.00 0.00 0.00 25 1021.8
20260903181456 59 0 0.0 0.0 0.00 0.00 0.00 25 1021.9
20260903180456 60 0 0.0 0.0 0.00 0.00 0.00 25 1021.8
20260903175456 61 0 0.0 0.0 0.00 0.00 0.00 24 1021.9
20260903174456 63 0 0.0 0.0 0.00 0.00 0.00 24 1022.1
20260903173455 64 181 0.0 0.0 0.00 0.00 0.00 24 1022.2
20260903172455 64 181 0.0 1.0 0.00 0.00 0.00 24 1021.9
20260903171455 64 0 0.0 0.0 0.00 0.00 0.00 24 1022.0
20260903170454 65 0 0.0 0.0 0.00 0.00 0.00 23 1022.3
20260903165454 67 0 0.0 0.0 0.00 0.00 0.00 23 1022.4
20260903164454 69 0 0.0 0.0 0.00 0.00 0.00 22 1022.6
20260903163454 69 45 0.0 0.0 0.00 0.00 0.00 22 1022.6
20260903162453 71 0 0.0 0.0 0.00 0.00 0.00 22 1022.7
20260903161453 74 0 0.0 0.0 0.00 0.00 0.00 21 1023.0
20260903160453 72 0 0.0 0.0 0.00 0.00 0.00 21 1022.9
20260903155452 74 270 0.0 1.0 0.00 0.00 0.00 21 1023.1
20260903154452 74 250 1.0 2.0 0.00 0.00 0.00 21 1023.1
20260903153452 74 272 0.0 5.0 0.00 0.00 0.00 21 1023.2
20260903152451 73 234 0.0 5.0 0.00 0.00 0.00 21 1023.2
20260903151451 74 132 1.0 3.0 0.00 0.00 0.00 21 1023.2
20260903150451 72 169 1.0 3.0 0.00 0.00 0.00 21 1023.1
20260903145451 72 119 1.0 3.0 0.00 0.00 0.00 21 1023.1
20260903144450 73 115 1.0 5.0 0.00 0.00 0.00 21 1023.2
20260903143450 74 118 2.0 8.0 0.00 0.00 0.00 21 1023.1
20260903142450 73 173 3.0 6.0 0.00 0.00 0.00 21 1023.1
20260903141449 75 184 3.0 7.0 0.00 0.00 0.00 21 1023.2
20260903140449 74 102 2.0 5.0 0.00 0.00 0.00 21 1023.1
20260903135449 74 205 3.0 7.0 0.00 0.00 0.00 21 1023.2
20260903134449 75 105 1.0 2.0 0.00 0.00 0.00 21 1023.5
20260903133448 76 281 0.0 1.0 0.00 0.00 0.00 20 1023.6
20260903132448 75 61 0.0 2.0 0.00 0.00 0.00 21 1023.6
20260903131448 75 187 1.0 4.0 0.00 0.00 0.00 21 1023.6
20260903130448 74 206 1.0 2.0 0.00 0.00 0.00 21 1023.5
20260903125447 72 181 1.0 2.0 0.00 0.00 0.00 21 1023.4
20260903124447 71 185 2.0 5.0 0.00 0.00 0.00 22 1023.5
20260903123446 72 156 3.0 7.0 0.00 0.00 0.00 22 1023.5
20260903122446 72 110 1.0 3.0 0.00 0.00 0.00 21 1023.6
20260903120446 73 207 3.0 8.0 0.00 0.00 0.00 21 1023.7
20260903115445 72 202 3.0 6.0 0.00 0.00 0.00 22 1023.5
20260903114445 71 208 3.0 5.0 0.00 0.00 0.00 22 1023.5
20260903113445 71 182 4.0 7.0 0.00 0.00 0.00 22 1023.5
20260903112444 72 217 3.0 14.0 0.00 0.00 0.00 21 1023.4
20260903111444 -1 86 2.0 5.0 0.00 0.00 0.00 12 1016.2
20260903110446 81 59 1.0 7.0 0.00 0.00 0.00 20 1024.3
20260903105444 78 289 2.0 5.0 0.00 0.00 0.00 20 1023.9
20260903104443 73 255 2.0 4.0 0.00 0.00 0.00 21 1023.9
20260903103443 76 309 1.0 2.0 0.00 0.00 0.00 20 1024.1
20260903102443 73 90 0.0 1.0 0.00 0.00 0.00 21 1024.0
20260903101442 74 48 0.0 2.0 0.00 0.00 0.00 21 1024.1
20260903100442 76 96 2.0 4.0 0.00 0.00 0.00 20 1024.6
20260903095442 78 123 0.0 1.0 0.00 0.00 0.00 20 1024.8
20260903094442 74 162 0.0 2.0 0.00 0.00 0.00 21 1024.5
20260903093441 72 115 1.0 3.0 0.00 0.00 0.00 21 1024.4
20260903092441 78 87 1.0 3.0 0.00 0.00 0.00 20 1024.7
20260903091441 77 124 0.0 2.0 0.00 0.00 0.00 20 1025.0
20260903090440 71 32 1.0 3.0 0.00 0.00 0.00 22 1024.5
20260903085440 72 56 0.0 2.0 0.00 0.00 0.00 21 1024.6
20260903084440 73 80 0.0 2.0 0.00 0.00 0.00 21 1024.8
20260903083439 74 69 0.0 2.0 0.00 0.00 0.00 21 1025.1
20260903082439 74 300 2.0 4.0 0.00 0.00 0.00 21 1024.9
20260903081439 71 327 1.0 3.0 0.00 0.00 0.00 22 1024.6
20260903080439 72 333 1.0 3.0 0.00 0.00 0.00 21 1024.7
20260903075438 71 314 1.0 3.0 0.00 0.00 0.00 22 1024.6
20260903074438 69 293 2.0 3.0 0.00 0.00 0.00 22 1024.4
20260903073438 68 307 1.0 2.0 0.00 0.00 0.00 22 1024.4
20260903072437 71 78 0.0 1.0 0.00 0.00 0.00 22 1024.6
20260903071437 70 348 1.0 3.0 0.00 0.00 0.00 22 1024.4
20260903070437 69 348 2.0 4.0 0.00 0.00 0.00 22 1024.6
20260903065437 65 326 1.0 2.0 0.00 0.00 0.00 23 1024.4
20260903064436 68 359 1.0 3.0 0.00 0.00 0.00 22 1024.7
20260903063436 64 338 2.0 4.0 0.00 0.00 0.00 24 1024.2
20260903062436 65 19 1.0 3.0 0.00 0.00 0.00 23 1024.5
20260903061435 64 357 2.0 3.0 0.00 0.00 0.00 24 1024.3
20260903060435 63 359 0.0 1.0 0.00 0.00 0.00 24 1024.2
20260903055435 62 340 0.0 1.0 0.00 0.00 0.00 24 1024.1
20260903054435 61 314 0.0 0.0 0.00 0.00 0.00 24 1024.1
20260903053434 63 0 0.0 0.0 0.00 0.00 0.00 24 1024.1
20260903052434 62 0 0.0 0.0 0.00 0.00 0.00 24 1024.0
20260903051434 56 0 0.0 0.0 0.00 0.00 0.00 26 1023.4
20260903050433 54 0 0.0 0.0 0.00 0.00 0.00 32 1023.1
20260903045433 54 0 0.0 0.0 0.00 0.00 0.00 38 1023.2
20260903044433 54 0 0.0 0.0 0.00 0.00 0.00 43 1023.1
20260903043432 54 0 0.0 0.0 0.00 0.00 0.00 57 1023.1
20260903042432 53 0 0.0 0.0 0.00 0.00 0.00 60 1022.9
20260903041432 52 0 0.0 0.0 0.00 0.00 0.00 60 1023.0
20260903040432 53 0 0.0 0.0 0.00 0.00 0.00 60 1023.1
20260903035431 53 0 0.0 0.0 0.00 0.00 0.00 60 1023.1
20260903034431 54 0 0.0 0.0 0.00 0.00 0.00 58 1023.0
20260903033431 54 0 0.0 0.0 0.00 0.00 0.00 56 1023.0
20260903032430 54 0 0.0 0.0 0.00 0.00 0.00 53 1023.0
20260903031430 56 0 0.0 0.0 0.00 0.00 0.00 49 1023.2
20260903030430 56 0 0.0 0.0 0.00 0.00 0.00 49 1023.2
20260903025430 56 0 0.0 0.0 0.00 0.00 0.00 47 1023.2
20260903024429 56 0 0.0 0.0 0.00 0.00 0.00 43 1023.2
20260903023429 56 0 0.0 0.0 0.00 0.00 0.00 37 1023.4
20260903022429 56 0 0.0 0.0 0.00 0.00 0.00 38 1023.4
20260903021428 56 181 0.0 2.0 0.00 0.00 0.00 34 1023.4
20260903020428 55 181 1.0 2.0 0.00 0.00 0.00 36 1023.3
20260903015428 54 0 0.0 0.0 0.02 0.02 0.02 41 1023.3
20260903014428 53 90 0.0 0.0 0.00 0.00 0.00 38 1023.3
20260903013427 53 141 1.0 3.0 0.00 0.00 0.00 33 1023.3
20260903012427 53 181 0.0 2.0 0.00 0.00 0.00 36 1023.3
20260903011427 53 94 0.0 2.0 0.00 0.00 0.00 30 1023.4
20260903010426 54 9 0.0 3.0 0.00 0.00 0.00 27 1023.3
20260903005426 53 355 1.0 3.0 0.00 0.00 0.00 27 1023.1
20260903004426 52 342 1.0 3.0 0.00 0.00 0.00 32 1023.0
20260903003425 51 0 0.0 0.0 0.00 0.00 0.00 37 1022.6
20260903002425 51 0 0.0 0.0 0.00 0.00 0.00 38 1022.6
20260903001425 51 0 0.0 0.0 0.00 0.00 0.00 39 1022.6
20260903000425 50 0 0.0 0.0 0.00 0.00 0.00 40 1022.6
20260902235424 49 0 0.0 0.0 0.00 0.00 0.00 38 1022.6
20260902234424 50 0 0.0 0.0 0.00 0.00 0.00 39 1022.8
20260902233424 50 0 0.0 0.0 0.00 0.00 0.00 39 1022.8
20260902232423 50 0 0.0 0.0 0.00 0.00 0.00 40 1022.8
20260902231423 50 0 0.0 0.0 0.00 0.00 0.00 40 1022.9
20260902230423 50 0 0.0 0.0 0.00 0.00 0.00 36 1023.0
20260902225423 51 0 0.0 0.0 0.00 0.00 0.00 35 1023.0
20260902224422 50 0 0.0 0.0 0.00 0.00 0.00 39 1023.0
20260902223422 50 0 0.0 0.0 0.00 0.00 0.00 34 1023.0
20260902222422 51 0 0.0 0.0 0.00 0.00 0.00 41 1022.9
20260902221421 50 0 0.0 0.0 0.00 0.00 0.00 39 1023.0
20260902220421 51 0 0.0 0.0 0.00 0.00 0.00 39 1023.0
20260902215421 51 0 0.0 0.0 0.00 0.00 0.00 40 1022.9
20260902214421 50 0 0.0 0.0 0.00 0.00 0.00 40 1022.9